Regional Weather Roundup
Issued by NWS Wilmington, NC

Home | Current Version | Previous Version | Text Only | Print | Product List | Glossary On
Versions: 1 2 3 4 5 6 7 8 9 10 11 12 13 14 15 16 17 18 19 20 21 22 23 24 25 26 27 28 29 30 31 32 33 34 35 36 37 38 39 40 41 42 43 44 45 46 47 48 49 50
274
ASUS42 KILM 240813
RWRILM
RWRILM
REGIONAL HOURLY WEATHER ROUNDUP
NATIONAL WEATHER SERVICE WILMINGTON NC
400 AM EDT FRI MAR 24 2017

NOTE: "FAIR" INDICATES FEW OR NO CLOUDS BELOW 12,000 FEET WITH NO
SIGNIFICANT WEATHER AND/OR OBSTRUCTIONS TO VISIBILITY.

...............WFO WILMINGTON COUNTY WARNING AREA...............

......COASTAL NC AND SC COUNTIES......

CITY           SKY/WX    TMP DP  RH WIND       PRES   REMARKS
WILMINGTON     CLEAR     37  34  89 NE6       30.52R WCI  32
N MYRTLE BEACH PTCLDY    41  38  89 N6        30.50R
MYRTLE BEACH   CLEAR     45  39  81 N7        30.50S

......INLAND NC AND SC COUNTIES.......

CITY           SKY/WX    TMP DP  RH WIND       PRES   REMARKS
LUMBERTON      CLEAR     40  34  79 E5        30.52S
ELIZABETHTOWN  CLEAR     37  33  84 CALM      30.53S
WHITEVILLE     CLEAR     40  34  81 NE3       30.51S
FLORENCE       PTCLDY    39  34  82 NE6       30.51S WCI  35
DARLINGTON     PTCLDY    38  35  89 NE3       30.52S
KINGSTREE      FAIR      41  34  75 CALM      30.49S
HARTSVILLE     FAIR      37  32  81 E5        30.50S WCI  34
BENNETTSVILLE  MOCLDY    39  37  93 CALM      30.51F
CONWAY         FAIR      36  34  93 CALM      30.50S
GEORGETOWN     FAIR      50  46  87 E3        30.48F
MARION         FAIR      37  32  81 NE3       30.51S

....................REST OF NORTH CAROLINA......................

.........EASTERN NC.........

CITY           SKY/WX    TMP DP  RH WIND       PRES   REMARKS
CAPE HATTERAS  CLEAR     44  37  76 NE7       30.54F
JACKSONVILLE   CLEAR     32  29  88 N3        30.54S
MOREHEAD CITY  CLEAR     41  34  76 NE5       30.53F
KENANSVILLE    CLEAR     32  30  93 CALM      30.54F
NEW BERN       CLEAR     37  33  85 E6        30.55F WCI  32
ELIZABETH CITY CLEAR     32  28  85 SE3       30.55F

.........CENTRAL NC.........

CITY           SKY/WX    TMP DP  RH WIND       PRES   REMARKS
RALEIGH DURHAM PTCLDY    39  27  62 S5        30.53F
ROCKY MOUNT    CLEAR     33  31  92 CALM      30.55F
ROANOKE RAPIDS NOT AVBL
FAYETTEVILLE   CLEAR     36  32  85 NE5       30.52F WCI  32
HOFFMAN        PTCLDY    33  31  92 CALM      30.51F

.........WESTERN NC.........

CITY           SKY/WX    TMP DP  RH WIND       PRES   REMARKS
CHARLOTTE      PTCLDY    43  31  62 S7        30.49F
GREENSBORO     CLEAR     41  30  65 S10       30.47F
HICKORY        NOT AVBL
BOONE          NOT AVBL
ASHEVILLE      NOT AVBL

.....................REST OF SOUTH CAROLINA.....................

.........EASTERN SC.........

CITY           SKY/WX    TMP DP  RH WIND       PRES   REMARKS
CHARLESTON     PTCLDY    48  44  86 NE7       30.45F
BEAUFORT MCAS  MOCLDY    48  46  93 N6        30.44F
HILTON HEAD    CLOUDY   N/A N/A N/A N8        30.44S

.........CENTRAL SC.........

CITY           SKY/WX    TMP DP  RH WIND       PRES   REMARKS
COLUMBIA       CLOUDY    49  36  61 E6        30.49S
ORANGEBURG     PTCLDY    46  38  73 NE5       30.48S
SUMTER SHAW    PTCLDY    41  35  80 NE6       30.47F

.........WESTERN SC.........

CITY           SKY/WX    TMP DP  RH WIND       PRES   REMARKS
GREENVILLE     NOT AVBL
ROCK HILL      PTCLDY    44  32  62 S3        30.49F
ANDERSON       CLOUDY    52  32  46 SE6       30.47S
CLEMSON        NOT AVBL
GREENWOOD      CLOUDY    48  33  56 SE3       30.49F


...................COASTAL AND OFFSHORE REPORTS..................

................LOCAL PIERS AND NC RESERVE................


STATION/POSITION TIME  SKY/WX   TEMP    WIND        PRES    VSBY
                                AIR SEA DIR/SP/G
                 (UTC)          (F)     (DEG/KT/KT) (MB)    (MI)
JOHNY MRCER PIER 0748            50 56   40/ 15/ 17 1032.1R
NC RESRV MASNBRO 0645            50      80/  8     1032.0
OCEAN CREST PIER NOT AVBL
SPRINGMAID  PIER 0748                               1031.6S


................COASTAL AND OFFSHORE BUOYS................


STATION/POSITION TIME  SKY/WX   TEMP    WIND        PRES    VSBY
                                AIR SEA DIR/SP/G
                 (UTC)          (F)     (DEG/KT/KT) (MB)    (MI)
DIMNDSHOAL 41025 0750            56 74   20/  6/ 12 1033.5F
WVE H/P(F/S)=  7/10 SWL H/P/D(F/S/D)=  7/ 50/10

CAPE LOOKOUT     0800            46      10/ 13/ 15 1033.2F
ONSLOW BAY 41036 NOT AVBL
ONSLOW BAY 41064 NOT AVBL
ONSLOW BAY 41159 0743               69                N/A
WVE H/P(F/S)=  4/11 SWL H/P/D(F/S/D)=  2/100/11

MASNBO INL 41110 0759               56                N/A
WVE H/P(F/S)=  3/ 5

WILM HARBR 41108 0747               56                N/A
WVE H/P(F/S)=  3/ 6

27SE WRITB 41037 0708            59 62   90/ 10/ 14 1031.7F
FRYING PAN 41013 0800            63 68  100/  8/ 14 1031.8
SUNST NRSH 41024 NOT AVBL
CAPRS NRSH 41029 0708            58      60/ 16/ 19 1031.1F
EDISTO     41004 0750            66 71  110/ 14/ 17 1030.1F
WVE H/P(F/S)=  6/ 7 SWL H/P/D(F/S/D)=  3/ 70/ 7



..........OFFSHORE BUOYS BEYOND 100 NM OFFSHORE...........
.....IN A TRIANGLE---HAT TO BERMUDA TO BAHAMAS TO HAT.....


STATION/POSITION TIME  SKY/WX   TEMP    WIND        PRES    VSBY
                                AIR SEA DIR/SP/G
                 (UTC)          (F)     (DEG/KT/KT) (MB)    (MI)
150E HAT   41001 NOT AVBL
W BERMUDA  41048 0750            59 68   30/ 17/ 23 1030.8F
WVE H/P(F/S)=  8/11 SWL H/P/D(F/S/D)=  7/360/11

ATLANTIC S 41049 0750            67 71   50/ 23/ 31 1021.8R
WVE H/P(F/S)= 10/ 9 SWL H/P/D(F/S/D)=  3/ 60/16

E BAHAMAS  41046 NOT AVBL
NE BAHAMAS 41047 0800            68 72   60/ 21/ 27 1025.3
120E CANVRL41010 NOT AVBL

END




USA.gov is the U.S. government's official web portal to all federal, state and local government web resources and services.